Regional Weather Roundup
Issued by NWS

Home | Current Version | Previous Version | Graphics & Text | Print | Product List | Glossary On
Versions: 1 2 3 4 5 6 7 8 9 10 11 12 13 14 15 16 17 18 19 20 21 22 23 24 25 26 27 28 29 30 31 32 33 34 35 36 37 38 39 40 41 42 43 44 45 46 47 48 49 50
000
ASUS43 KIND 261209
RWRIN

WEATHER ROUNDUP FOR INDIANA
NATIONAL WEATHER SERVICE INDIANAPOLIS IN
700 AM EST MON JAN 26 2015

NOTE: "FAIR" INDICATES FEW OR NO CLOUDS BELOW 12,000 FEET WITH NO
SIGNIFICANT WEATHER AND/OR OBSTRUCTIONS TO VISIBILITY.

* - STATION DOES NOT REPORT WEATHER SUCH AS PRECIPITATION OR FOG.

+ - STATION NOT QUALITY CONTROLLED BY THE NATIONAL WEATHER SERVICE.
    USE DATA WITH CAUTION...ESPECIALLY DEWPOINT AND RELATIVE
    HUMIDITY OBSERVATIONS.

INZ001>003-010>013-019-020-261300-
NORTHWEST INDIANA

CITY           SKY/WX    TMP DP  RH WIND       PRES   REMARKS
GARY /AIRPORT/ CLEAR     18   9  68 SE10      29.98S WCI   6
KNOX *+        CLEAR     11   3  70 NW5       29.96R WCI   3
LA PORTE +     CLEAR     10   7  89 NW3       29.96S
6HR MIN TEMP:   9; 6HR MAX TEMP:  19;

MICHIGAN CITY+ CLEAR     12   7  79 CALM      29.98R
MONTICELLO +   PTCLDY    12   8  81 N5        29.95S WCI   5
RENSSELAER +   CLEAR     18  18 100 N3        29.96S
VALPARAISO     CLEAR     10   7  87 NE6       29.95F WCI   0
6HR MIN TEMP:  10; 6HR MAX TEMP:  18;


$$

LMZ046-743>745-261300-
SOUTHERN LAKE MICHIGAN

STATION/POSITION TIME  TEMP WIND        PRES
                       AIR  DIR/SP/G
                 (UTC) (F)  (DEG/KT/KT) (MB)
MICHIGAN CITY    1200   16   60/  6/  6   N/A

$$

INZ004-005-014>016-021>024-261300-
NORTH CENTRAL INDIANA

CITY           SKY/WX    TMP DP  RH WIND       PRES   REMARKS
ELKHART        CLEAR     10   7  85 CALM      29.96
GOSHEN         PTCLDY    11   6  81 N3        29.94R
6HR MIN TEMP:   9; 6HR MAX TEMP:  18;

LOGANSPORT +   PTCLDY    12   9  85 N3        29.95S
PERU/GRISSOM   MOCLDY    11   6  81 NE8       29.92R WCI  -1
6HR MIN TEMP:  11; 6HR MAX TEMP:  22;

ROCHESTER +    PTCLDY    14  10  85 N3        29.95S
SOUTH BEND     PTCLDY     8   4  83 N6        29.96S WCI  -2
6HR MIN TEMP:   7; 6HR MAX TEMP:  19;

WARSAW +       PTCLDY    10   7  85 CALM      29.94S

$$

INZ006>009-017-018-025>027-261300-
NORTHEAST INDIANA

CITY           SKY/WX    TMP DP  RH WIND       PRES   REMARKS
ANGOLA *+      CLEAR      7   5  92 CALM      29.90R
AUBURN +       PTCLDY     9   5  85 N5        29.92R WCI   0
FORT WAYNE     PTCLDY     8   4  83 NW6       29.92R WCI  -2
6HR MIN TEMP:   7; 6HR MAX TEMP:  20; 6HR PCP: TRACE;

HUNTINGTON +   PTCLDY    10   3  73 NW6       29.94R WCI   0
6HR MIN TEMP:   9; 6HR MAX TEMP:  20;


$$

INZ028-029-035-036-043>045-051>053-261300-
WEST CENTRAL INDIANA

CITY           SKY/WX    TMP DP  RH WIND       PRES   REMARKS
CRAWFORDSVL +  CLOUDY    21  14  73 N7        29.94  WCI  13
GREENCASTLE +  CLOUDY    25  18  74 NW5       29.93S WCI  19
LAFAYETTE      PTCLDY    16  12  84 CALM      29.96R
6HR MIN TEMP:  16; 6HR MAX TEMP:  24;

TERRE HAUTE    CLOUDY    27  20  75 N5        29.96R WCI  22
6HR MIN TEMP:  26; 6HR MAX TEMP:  27;


$$

INZ030>032-037>040-046>048-054>057-064-065-261300-
CENTRAL INDIANA

CITY           SKY/WX    TMP DP  RH WIND       PRES   REMARKS
CP ATTERBURY + CLOUDY    23  18  80 N8        29.92R WCI  14
COLUMBUS       CLOUDY    21  16  79 N14       29.92  WCI   8
INDIANAPOLIS   MOCLDY    18  12  77 N9        29.92R WCI   7
6HR MIN TEMP:  18; 6HR MAX TEMP:  20;

-EAGLE CREEK   MOCLDY    19  12  74 N6        29.92R WCI  11
6HR MIN TEMP:  19; 6HR MAX TEMP:  22;

KOKOMO *+      MOCLDY    14   7  73 N7        29.93S WCI   4
MARION +       PTCLDY    15   8  75 N7        29.94R WCI   5
MT COMFORT *+  PTCLDY    19   9  63 N7        29.92R WCI  10
SHELBYVILLE    CLOUDY    22  14  71 N15       29.90R WCI   9
6HR MIN TEMP:  22; 6HR MAX TEMP:  23;

ZIONSVILLE +   MOCLDY    20  13  73 N5        29.92R WCI  13
6HR MIN TEMP:  20; 6HR MAX TEMP:  23;


$$

INZ033-034-041-042-049-050-058-059-261300-
EAST CENTRAL INDIANA

CITY           SKY/WX    TMP DP  RH WIND       PRES   REMARKS
MUNCIE         CLEAR     13   8  81 NW6       29.89R WCI   4
6HR MIN TEMP:  13; 6HR MAX TEMP:  20;


$$

INZ060-061-067>069-081>083-085>088-261300-
SOUTHWEST INDIANA

CITY           SKY/WX    TMP DP  RH WIND       PRES   REMARKS
EVANSVILLE     CLOUDY    31  25  78 N14G21    29.98R WCI  21
6HR MIN TEMP:  31; 6HR MAX TEMP:  33;

HUNTINGBURG *+ CLOUDY    28  21  74 N12G18    29.96R WCI  18
6HR MIN TEMP:  27; 6HR MAX TEMP:  30;

WASHINGTON +   CLOUDY    28  22  78 N8        29.96R WCI  20
6HR MIN TEMP:  27; 6HR MAX TEMP:  29;


$$

INZ062-063-066-070>080-084-089>092-261300-
SOUTH CENTRAL AND SOUTHEAST INDIANA

CITY           SKY/WX    TMP DP  RH WIND       PRES   REMARKS
BLOOMINGTON    CLOUDY    24  17  74 N6        29.92R WCI  17
6HR MIN TEMP:  23; 6HR MAX TEMP:  25;


$$



USA.gov is the U.S. government's official web portal to all federal, state and local government web resources and services.